[[{"header":{"parameterUnit":"m.s-1","parameterCategory":1,"la1":30.2991,"la2":30.254,"lo1":-89.0895,"lo2":-89.0444,"dy":0.0017,"dx":0.0017,"nx":28,"ny":28,"refTime":"2024-07-13T03:00:00:Z","depth":0,"parameterNumber":2,"parameterNumberName":"U-component_of_WINDS"},"data":[0,0,0,0,0,0,0,0,0,0,0,0,0,0,0,0,0,0,0,0,0,0,0,0,0,0,0,0,0,0,0,0,0,0,0,0,0,0,0,0,0,0,0,0,0,0,0,0,0,0,0,0,0,0,0,0,0,0,3.8023,3.8025,0,3.8162,3.8163,3.8165,3.8098,3.8094,3.8091,3.8087,3.8233,3.824,3.8248,0,0,0,0,0,0,0,0,0,0,0,0,0,3.7704,3.771,3.8023,3.8025,3.8027,3.8162,3.8164,3.8165,3.8098,3.8094,3.809,3.8086,3.8231,3.824,3.8248,0,0,0,0,0,0,0,0,0,0,0,0,0,3.7842,3.7712,3.8023,3.8009,3.801,3.8161,3.8164,3.8166,3.8099,3.8094,3.8089,3.8084,3.8228,3.8239,3.8249,3.8424,0,0,3.8283,3.8287,0,0,0,0,0,0,0,0,3.7835,3.7854,3.801,3.8011,3.8011,3.8107,3.8104,3.8253,3.8101,3.8065,3.8087,3.8081,3.8196,3.8209,3.8247,3.8431,3.8437,3.8284,3.829,3.8295,3.8298,0,0,0,0,0,0,0,3.7825,3.7848,3.8078,3.8012,3.8013,3.7997,3.8011,3.8132,3.8159,3.8068,3.8063,3.8081,3.8195,3.8237,3.825,3.8439,3.8283,3.8293,3.83,3.8304,3.8771,3.8776,0,0,0,0,0,0,3.7816,3.784,3.8074,3.8082,3.7908,3.8007,3.8023,3.8082,3.8158,3.8164,3.8085,3.8077,3.8221,3.8237,3.8255,3.8463,3.8295,3.8305,3.8311,3.8765,3.8772,3.8778,0,0,0,0,0,0,3.7809,3.7837,3.8068,3.796,3.7988,3.8019,3.8085,3.8087,3.8128,3.817,3.8175,3.8122,3.8217,3.824,3.8382,3.8467,3.831,3.832,3.8758,3.8767,3.8775,3.888,0,0,0,0,0,0,3.78,3.7835,3.7901,3.7962,3.7994,3.8192,3.8091,3.8094,3.8147,3.8138,3.8207,3.8213,3.8215,3.8366,3.8392,3.8479,3.8328,3.875,3.8762,3.8773,3.8869,3.8892,3.8911,0,0,0,0,0,3.7789,3.7926,3.7905,3.7933,3.8077,3.8197,3.8216,3.8214,3.8154,3.8221,3.8247,3.8211,3.8453,3.8381,3.841,3.8501,3.8745,3.8759,3.8772,3.886,3.8887,3.891,0,0,0,0,0,0,3.7876,3.7934,3.7911,3.8072,3.813,3.8185,3.827,3.8243,3.832,3.8309,3.8304,3.832,3.8467,3.8499,3.8417,3.8673,3.859,3.861,3.8647,3.8673,3.8694,3.8683,3.8337,0,0,0,0,0,3.7914,3.8005,3.8051,3.8189,3.8219,3.824,3.8292,3.8285,3.8346,3.837,3.8407,3.8469,3.8558,3.8618,3.8703,3.8874,3.8887,3.8951,3.8971,3.8988,3.9005,3.9097,3.9125,3.8822,3.8822,3.8822,0,0,3.7994,3.8037,3.8095,3.8208,3.8252,3.8347,3.8261,3.8366,3.8437,3.8387,3.8522,3.8552,3.862,3.8776,3.8847,3.8807,3.9092,3.9005,3.9018,3.9026,3.9113,3.9142,3.9167,3.8831,3.883,3.8828,0,0,3.8187,3.8229,3.8347,3.8393,3.846,3.8472,3.8501,3.856,3.8577,3.8713,3.8677,3.8762,3.8917,3.8966,3.9011,3.9222,3.919,3.925,3.9358,3.9447,3.9471,3.9492,3.9566,3.9593,3.9267,3.9267,3.9267,0,3.8278,3.8419,3.8412,3.8519,3.857,3.8527,3.8647,3.8692,3.8785,3.8821,3.8774,3.8966,3.9009,3.9176,3.9227,3.9266,3.9298,3.9242,3.9468,3.9489,3.9508,3.9579,3.9607,3.9274,3.9273,3.9272,3.9272,0,3.8526,3.8625,3.8713,3.88,3.8861,3.8974,3.8985,3.9048,3.9036,3.9053,3.9191,3.9241,3.9334,3.9374,3.9364,3.9539,3.9512,3.9467,3.9383,3.9544,3.961,3.9637,3.9283,3.9281,3.9279,3.9277,0,0,3.878,3.8861,3.8893,3.8932,3.9002,3.9078,3.9189,3.9279,3.9332,3.9397,3.949,3.9622,3.9579,3.9631,3.9626,3.9705,3.9866,3.9649,3.9651,3.9687,4.0062,4.0095,4.0126,3.9846,3.9851,3.9855,4.0055,0,3.8977,3.917,3.9166,3.9346,3.9436,3.9396,3.9493,3.9547,3.9566,3.9646,3.9668,3.976,3.9698,3.9729,3.9804,3.9831,3.9942,3.9816,3.9933,3.9937,3.9916,4.0161,4.0196,4.0383,4.0081,4.0086,4.0089,0,3.9233,3.9304,3.9492,3.9547,3.9585,3.9672,3.9753,3.983,3.989,3.9898,3.9955,3.9938,4.0051,3.9964,4.012,4.0035,4.0082,4.0103,4.011,4.012,4.0022,4.0177,4.0442,4.047,4.013,4.0127,4.0124,0,3.9398,3.954,3.967,3.9705,3.9773,3.9835,3.9866,3.9921,3.9975,4.0046,4.0081,4.0165,4.0212,4.0278,4.0284,4.022,4.0441,4.0354,4.0451,4.0451,4.0499,4.0495,4.0775,4.0531,4.053,4.053,4.0529,0,3.9618,3.9734,3.9745,3.9825,3.9954,3.9949,4.0077,4.0103,4.0152,4.0237,4.0208,4.0289,4.0292,4.0374,4.038,4.0508,4.0529,4.0539,4.0539,4.0542,4.054,4.0572,4.0559,4.0537,4.0536,4.0534,4.0533,0,3.9824,3.9835,3.9974,4.0027,4.0042,4.0135,4.018,4.0257,4.0272,4.038,4.0405,4.043,4.0526,4.0538,4.0651,4.0654,4.0807,4.0794,4.0786,4.0784,4.0879,4.087,4.1188,4.1229,4.096,4.0962,4.0964,0,3.9963,4.0051,4.0112,4.0166,4.02,4.0287,4.0341,4.034,4.0397,4.0471,4.0539,4.0631,4.0705,4.0859,4.0889,4.0974,4.0962,4.1068,4.0975,4.0974,4.0963,4.0957,4.0965,4.1086,4.1089,4.1091,4.1093,0,4.0209,4.021,4.0288,4.0368,4.0432,4.0496,4.0555,4.0601,4.0608,4.0674,4.077,4.0827,4.094,4.1032,4.1116,4.1149,4.1123,4.1122,4.1148,4.1151,4.1143,4.1147,4.0834,4.1115,4.1112,4.1111,4.111,4.1109,4.0385,4.0461,4.0515,4.0602,4.0646,4.0702,4.0776,4.08,4.088,4.097,4.0965,4.1071,4.1128,4.1237,4.1277,4.136,4.1325,4.1364,4.1374,4.1383,4.1392,4.113,4.1375,4.1375,4.1374,4.1374,4.1373,0,4.0629,4.0661,4.0741,4.0824,4.0893,4.086,4.0924,4.0984,4.1077,4.1131,4.1203,4.1313,4.1402,4.1437,4.1524,4.1584,4.1574,4.1606,4.1602,4.161,4.1419,4.1386,4.1613,4.1613,4.1613,4.1613,4.1613,4.1613,4.0764,4.0889,4.0897,4.1044,4.1075,4.1177,4.1216,4.1268,4.1311,4.1434,4.1507,4.1528,4.1575,4.1665,4.1745,4.1753,4.1786,4.1824,4.1827,4.1648,4.1623,4.16,4.157,4.1831,4.1831,4.201,4.2012,4.2013]},{"header":{"parameterUnit":"m.s-1","parameterCategory":1,"la1":30.2991,"la2":30.254,"lo1":-89.0895,"lo2":-89.0444,"dy":0.0017,"dx":0.0017,"nx":28,"ny":28,"refTime":"2024-07-13T03:00:00:Z","depth":0,"parameterNumber":3,"parameterNumberName":"V-component_of_WINDS"},"data":[0,0,0,0,0,0,0,0,0,0,0,0,0,0,0,0,0,0,0,0,0,0,0,0,0,0,0,0,0,0,0,0,0,0,0,0,0,0,0,0,0,0,0,0,0,0,0,0,0,0,0,0,0,0,0,0,0,0,0.3102,0.3102,0,0.3085,0.3085,0.3085,0.3057,0.3056,0.3056,0.3055,0.3038,0.3038,0.3038,0,0,0,0,0,0,0,0,0,0,0,0,0,0.311,0.311,0.3102,0.3102,0.3102,0.3085,0.3085,0.3085,0.3057,0.3056,0.3056,0.3055,0.3038,0.3038,0.3038,0,0,0,0,0,0,0,0,0,0,0,0,0,0.3101,0.311,0.3102,0.3086,0.3084,0.3085,0.3085,0.3085,0.3057,0.3056,0.3056,0.3055,0.3038,0.3038,0.3038,0.3053,0,0,0.3038,0.3038,0,0,0,0,0,0,0,0,0.3102,0.3101,0.3089,0.3087,0.3085,0.3072,0.3081,0.3074,0.3057,0.3067,0.3055,0.3054,0.305,0.3049,0.3047,0.3052,0.3051,0.3038,0.3038,0.3038,0.3038,0,0,0,0,0,0,0,0.3102,0.3101,0.3095,0.3088,0.3086,0.3079,0.3077,0.308,0.3063,0.3066,0.3064,0.3063,0.3049,0.3047,0.3046,0.3051,0.3038,0.3038,0.3038,0.3038,0.3066,0.3067,0,0,0,0,0,0,0.3105,0.3102,0.3096,0.3095,0.3092,0.308,0.3077,0.3077,0.3063,0.306,0.3063,0.3062,0.3048,0.3047,0.3046,0.3062,0.3038,0.3038,0.3038,0.3066,0.3067,0.3067,0,0,0,0,0,0,0.3106,0.3105,0.3097,0.3098,0.3096,0.308,0.308,0.3077,0.3076,0.3061,0.3057,0.3065,0.3047,0.3046,0.3051,0.3061,0.3038,0.3038,0.3065,0.3066,0.3067,0.3095,0,0,0,0,0,0,0.3106,0.3105,0.3111,0.3098,0.3096,0.3103,0.3081,0.3077,0.3076,0.3073,0.3061,0.3059,0.3046,0.3051,0.3051,0.3061,0.3038,0.3064,0.3065,0.3067,0.3093,0.3097,0.3101,0,0,0,0,0,0.3106,0.312,0.3112,0.3111,0.3103,0.3103,0.3102,0.3088,0.3077,0.3082,0.3073,0.3059,0.306,0.3052,0.3052,0.3061,0.3063,0.3065,0.3067,0.3092,0.3097,0.3101,0,0,0,0,0,0,0.3135,0.3118,0.3109,0.3119,0.3113,0.3099,0.3105,0.3093,0.309,0.3088,0.307,0.3067,0.3075,0.3069,0.306,0.3075,0.3059,0.3061,0.3079,0.3083,0.3087,0.3088,0.3038,0,0,0,0,0,0.3142,0.3144,0.3129,0.3139,0.3137,0.3122,0.3121,0.311,0.3103,0.31,0.3091,0.3085,0.3083,0.3083,0.3081,0.3092,0.3089,0.3099,0.3102,0.3105,0.3107,0.3112,0.3116,0.3073,0.3073,0.3073,0,0,0.3158,0.3149,0.3151,0.3145,0.3139,0.314,0.312,0.3122,0.3123,0.3101,0.3105,0.3098,0.3089,0.3098,0.3101,0.3093,0.3118,0.3107,0.311,0.311,0.3114,0.3118,0.3121,0.3074,0.3074,0.3074,0,0,0.3187,0.318,0.3188,0.3182,0.3173,0.3163,0.3165,0.3152,0.3147,0.3151,0.3134,0.3134,0.3133,0.3127,0.3124,0.315,0.3137,0.3149,0.3168,0.3173,0.3176,0.3179,0.3188,0.3191,0.3151,0.3151,0.3151,0,0.3207,0.3209,0.3193,0.3197,0.3194,0.3174,0.3181,0.3176,0.3167,0.3166,0.3157,0.3153,0.3146,0.3153,0.3159,0.3157,0.3158,0.3151,0.3177,0.318,0.3182,0.319,0.3194,0.3153,0.3153,0.3152,0.3152,0,0.3234,0.3235,0.3242,0.3234,0.3232,0.3238,0.3222,0.3222,0.3211,0.3202,0.3206,0.3196,0.3192,0.3193,0.3182,0.3197,0.3192,0.318,0.3164,0.3188,0.3195,0.3198,0.3155,0.3154,0.3154,0.3154,0,0,0.3281,0.3263,0.3266,0.3261,0.325,0.325,0.3254,0.325,0.325,0.3244,0.3247,0.3245,0.3234,0.3231,0.3219,0.3224,0.3244,0.3211,0.3211,0.3217,0.3259,0.3267,0.3271,0.3235,0.3236,0.3236,0.3259,0,0.3307,0.3313,0.3298,0.3308,0.3309,0.3289,0.3292,0.3285,0.3277,0.3275,0.3265,0.3265,0.325,0.3248,0.3251,0.3241,0.3252,0.3239,0.3237,0.3237,0.3239,0.3275,0.3284,0.3307,0.3262,0.3262,0.3263,0,0.3338,0.3334,0.3343,0.333,0.333,0.3334,0.3328,0.3327,0.3319,0.3312,0.3307,0.3294,0.3296,0.3281,0.3284,0.3275,0.3274,0.3268,0.3269,0.3268,0.3251,0.3275,0.3313,0.3317,0.3267,0.3267,0.3266,0,0.3371,0.3367,0.3372,0.3369,0.3354,0.3357,0.3351,0.3341,0.3339,0.3334,0.3332,0.3328,0.3325,0.3321,0.3307,0.3297,0.3311,0.3295,0.3305,0.3305,0.3308,0.3308,0.3347,0.3308,0.3308,0.3308,0.3308,0,0.3401,0.3408,0.3386,0.339,0.3396,0.3379,0.3386,0.3378,0.3369,0.337,0.3353,0.3354,0.3335,0.3333,0.3322,0.3325,0.3324,0.3318,0.3315,0.332,0.3321,0.3318,0.3316,0.3309,0.3308,0.3308,0.3308,0,0.3438,0.3425,0.3429,0.3414,0.3411,0.3416,0.3403,0.3405,0.3395,0.3396,0.3395,0.3379,0.3377,0.3362,0.3356,0.3348,0.3355,0.3349,0.3359,0.3356,0.3367,0.3366,0.3406,0.3409,0.3368,0.3369,0.3369,0,0.3459,0.3463,0.3449,0.3448,0.3443,0.3442,0.344,0.3423,0.3421,0.3411,0.3414,0.341,0.3406,0.3403,0.339,0.3386,0.3379,0.3393,0.3378,0.3382,0.3378,0.3378,0.3378,0.3396,0.3397,0.3397,0.3398,0,0.3496,0.3488,0.3486,0.3481,0.3479,0.3474,0.3468,0.3468,0.3449,0.3448,0.3445,0.3442,0.3436,0.3432,0.3425,0.3418,0.3404,0.3402,0.3404,0.3409,0.3414,0.3411,0.3367,0.3401,0.3401,0.3401,0.3401,0.34,0.3525,0.3527,0.3518,0.3515,0.3509,0.3504,0.3504,0.3494,0.3492,0.3485,0.3476,0.3474,0.3464,0.3453,0.3447,0.3445,0.3438,0.3441,0.3441,0.3442,0.3444,0.3414,0.3444,0.3444,0.3444,0.3444,0.3444,0,0.356,0.3553,0.3551,0.3543,0.3541,0.3528,0.3521,0.352,0.3519,0.3511,0.3507,0.3504,0.3499,0.3486,0.3481,0.3482,0.3475,0.3481,0.348,0.3479,0.3452,0.345,0.3486,0.3486,0.3486,0.3486,0.3486,0.3486,0.3579,0.3582,0.3574,0.3574,0.3567,0.3565,0.3562,0.3556,0.355,0.3547,0.3543,0.3535,0.3525,0.3518,0.3513,0.351,0.3508,0.3515,0.351,0.3485,0.3481,0.3477,0.3475,0.3515,0.3515,0.3536,0.3536,0.3537]}]]